Погода в Клаипеде

Погода в Клаипеде : погода сейчас, прогноз погоды и архив. Всё, что Вы хотите узнать о погоде в Клаипеде!

Поиск расширенной информации на нашем сайте:

Другие новости

Новости СМИ2

Главная страница сайта

Новости сайта

03.07.2017

Напоминаем, что на нашем специализированном сайте Метеоцентр.Азия вы можете получить высокодетализированные автоматические прогнозы погоды по пунктам России, СНГ и мира в авиационном формате (включающие направление и скорость ветра, видимость, явления погоды, количество и форму облачности, нижнюю и верхнюю границу облачности).

Рекомендуем: Удобная и быстрая видео афиша для быстрого просмотра новостей

Погода в Клаипеде - сегодня

Время (UTC), дата Ветер
(°,м/с) 
Видим.   Явления Облачность Т
(°С)
Тd
(°С)
f(%) Тe
(°С)
Pmin
(гПа)
dP
(гПа)
Po
(мм)
O2
(г/м3)
Тmin Tmax R s Состояние
почвы
15 14.06.18 290 (З) 2-4{05}  20000 м    3/0 верхняя 
[Ci sp]
+18.7 +14.6 77 +28  1013.7  -0.1  760  283           
18 14.06.18 290 (З) 2-3{04}  20000 м    4/3 600 м верхняя 
[Cu med, cong|Ci sp]
+17.1 +14.7 86 +26  1013.8  0.1  760  285    +20.5       
21 14.06.18 050 (СВ) 1-1{04}  20000 м    3/0 верхняя 
[Ci sp]
+13.1 +12.5 96 +18  1014.7  0.9  760  290           
00 15.06.18 тихо () -1{02}  19000 м    4/0 верхняя 
[Ci sp]
+11.1 +10.7 97 +13  1014.9  0.2  761  292           
03 15.06.18 140 (ЮВ) 1-2{02}  11000 м    6/0 верхняя 
[Ci sp]
+11.3 +11.1 99 +14  1014.8  -0.1  760  292           
06 15.06.18 200 (Ю) 2-3{04}  20000 м    6/0 средняя 
[Ac und]
+17.6 +13.9 79 +24  1015.9  1.1  761  285  +10.2        сухая 
09 15.06.18 280 (З) 2-3{03}  20000 м    8/0 средняя 
[Ac und]
+18.9 +12.8 68 +25  1016.7  0.8  762  285           
18 15.06.18 320 (СЗ) 1-3{04}  20000 м    9/0 средняя, верхняя 
[Ac cast|Cc]
+17.3 +14.7 85 +27  1017.1  762  286    +20.1       
21 15.06.18 030 (СВ) 1-1{03}  17000 м    6/0 верхняя 
[Ci sp]
+13 +12.4 96 +18  1017.8  0.7  763  291           
03 16.06.18 050 (СВ) 1-2{02}  7000 м  дымка  ясно 
+11.8 +11.7 99 +16  1018.2  0.2  763  292           
06 16.06.18 280 (З) 2-3{03}  20000 м    3/0 средняя 
[Ac trans]
+17.6 +14.7 83 +26  1018.2  763  286  +10.8        сухая 
09 16.06.18 300 (СЗ) 2-4{05}  20000 м    3/1 600 м средняя 
[Cu med, cong|Ac trans]
+18.9 +13.8 72 +26  1018.5  0.3  763  285           
18 16.06.18 310 (СЗ) 2-3{05}  20000 м    ясно 
+17.9 +13.7 76 +25  1017.3  -0.6  762  286    +20.5       
03 17.06.18 100 (В) 1-1{02}  7000 м  дымка  3/0 средняя 
[As op]
+10.4 +10.2 99 +13  1017  -0.2  762  294           
06 17.06.18 190 (Ю) 2-3{03}  20000 м    ясно 
+17.5 +15 85 +26  1016.8  -0.2  762  285  +9.5        сухая 
09 17.06.18 200 (Ю) 2-3{04}  20000 м    ясно 
+20.2 +14.8 71 +28  1016.9  0.1  762  283           
15 17.06.18 210 (ЮЗ) 2-2{04}  20000 м    ясно 
+24.3 +9 38 +24  1015  -1  761  280           
18 17.06.18 тихо () -0{03}  20000 м    ясно 
+23.8 +8.5 38 +24  1014.3  -0.8  760  280    +26       
21 17.06.18 110 (В) 1-2{02}  20000 м    ясно 
+17.1 +9.4 60 +19  1014.5  0.2  760  287           
00 18.06.18 180 (Ю) 1-3{06}  20000 м    ясно 
+18.9 +12.8 68 +25  1014.9  0.4  761  284           
03 18.06.18 310 (СЗ) 2-4{06}  20000 м    10/0 средняя, верхняя 
[Ac trans|Ci sp]
+17.8 +15.4 86 +28  1015.4  0.5  761  285           
06 18.06.18 320 (СЗ) 3-6{08}  20000 м    9/6 600 м средняя, верхняя 
[Sc|Ac trans|Ci sp]
+19 +12 64 +24  1016.6  1.2  762  285  +15.7        сухая 
09 18.06.18 310 (СЗ) 2-4{05}  20000 м    10/10 1000 м 
[Sc]
+17.8 +12.2 70 +23  1017.8  1.2  763  286           
15 18.06.18 280 (З) 3-4{06}  20000 м    8/3 600 м средняя, верхняя 
[Sc|Ac trans|Ci sp]
+19.9 +11.4 58 +24  1018.3  -0.4  763  284           
18 18.06.18 260 (З) 2-4{05}  20000 м    3/0 верхняя 
[Ci sp]
+17.8 +11 64 +21  1018  -0.3  763  287    +20.9       
Время (UTC), дата Ветер
(°,м/с) 
Видим.   Явления Облачность Т
(°С)
Тd
(°С)
f(%) Тe
(°С)
Pmin
(гПа)
dP
(гПа)
Po
(мм)
O2
(г/м3)
Тmin Tmax R s Состояние
почвы

Для получения пояснительной информации подведите курсор к названию столбца.

ПОГОДА в Клаипеде - архив

Всё, что Вы хотите узнать о погоде в Клаипеде - удобно и подробно!

Выберите нужную дату (начиная с 1 января 2015* года) и нажмите кнопку "Найти".
Будут отображены архивные сводки погоды по пункту Клаипеда, начиная с указанной даты.


Отображать данные в формате CSV (для использования в таблицах Excel)


Внимание! Наш архив погоды предназначен исключительно для личного некоммерческого использования в познавательных целях. Если Вам необходимы официальные справки о состоянии погоды (для производственных, юридических, коммерческих и т.п. целей), обращайтесь в органы Росгидромета.

*Примечание: данная дата относится к архиву по метеостанциям СССР (Россия, СНГ, Балтия).
Архив по метеостанциям Зарубежной Европы и Азии (кроме Китая) хранится 10 дней, по другим регионам земного шара (Китай, Африка, Америка, Австралия, Океания) - 1 день.

Клаипеда - район местоположения метеостанции


Название, широта, долгота, высота метеостанции:
Клаипеда 55.7°ш. 21.1°д. 7 м над ур. моря [Литва]

Дополнительная информация

В oтличие oт бoльшинства пoгoдных сайтoв мы публикуем пoдрoбную метеoинфoрмацию в детальнoм прoфессиoнальнoм фoрмате.

Характеристики температуры и влажнoсти вoздуха измеряются на высoте 2 м в тени вдали oт зданий и деревьев.
Скoрoсть ветра измеряется на высoте 10 м (на урoвне рoста челoвека скoрoсть ветра ниже в 1.5-2 раза). Если метеoстанция нахoдится в гoрoде или в лесу, тo скoрoсть ветра занижена на 2-4 м/с пo сравнению с oткрытым местoм. Скoрoсть ветра над акватoриями крупных рек и oзёр, а также на вершинах хoлмoв на 2-5 м/с выше, чем в oбычных услoвиях.
Атмoсфернoе давление в разных тoчках местнoсти мoжет значительнo oтличаться oт давления на метеoстанции, в зависимoсти oт услoвий рельефа (при пoдъёме на 10 м давление пoнижается примернo на 1 мм рт.ст.).